[[{"header":{"parameterUnit":"m.s-1","parameterCategory":1,"la1":30.2991,"la2":30.254,"lo1":-89.0895,"lo2":-89.0444,"dy":0.0017,"dx":0.0017,"nx":28,"ny":28,"refTime":"2024-05-20T03:00:00:Z","depth":0,"parameterNumber":2,"parameterNumberName":"U-component_of_WINDS"},"data":[0,0,0,0,0,0,0,0,0,0,0,0,0,0,0,0,0,0,0,0,0,0,0,0,0,0,0,0,0,0,0,0,0,0,0,0,0,0,0,0,0,0,0,0,0,0,0,0,0,0,0,0,0,0,0,0,0,0,-2.2345,-2.2346,0,-2.241,-2.2411,-2.2411,-2.2403,-2.2402,-2.2401,-2.24,-2.2465,-2.2468,-2.247,0,0,0,0,0,0,0,0,0,0,0,0,0,-2.2214,-2.2217,-2.2345,-2.2346,-2.2347,-2.241,-2.2411,-2.2412,-2.2404,-2.2402,-2.2401,-2.24,-2.2464,-2.2467,-2.247,0,0,0,0,0,0,0,0,0,0,0,0,0,-2.2274,-2.2218,-2.2345,-2.2351,-2.2352,-2.241,-2.2411,-2.2412,-2.2404,-2.2402,-2.2401,-2.2399,-2.2463,-2.2467,-2.2471,-2.2527,0,0,-2.2483,-2.2485,0,0,0,0,0,0,0,0,-2.2271,-2.2279,-2.2349,-2.235,-2.2352,-2.2397,-2.2388,-2.245,-2.2404,-2.2384,-2.24,-2.2399,-2.2444,-2.2449,-2.2464,-2.253,-2.2533,-2.2484,-2.2486,-2.2488,-2.2489,0,0,0,0,0,0,0,-2.2267,-2.2276,-2.2371,-2.235,-2.2352,-2.235,-2.2356,-2.24,-2.2422,-2.2386,-2.2385,-2.2393,-2.2444,-2.2461,-2.2466,-2.2534,-2.2483,-2.2487,-2.2489,-2.2491,-2.2648,-2.265,0,0,0,0,0,0,-2.2261,-2.2273,-2.2369,-2.2373,-2.2307,-2.2353,-2.2361,-2.2384,-2.2421,-2.2425,-2.2394,-2.2393,-2.2455,-2.2461,-2.2468,-2.2536,-2.2488,-2.2491,-2.2494,-2.2646,-2.2649,-2.265,0,0,0,0,0,0,-2.2259,-2.227,-2.2366,-2.2323,-2.2335,-2.2357,-2.2383,-2.2386,-2.2403,-2.2428,-2.2431,-2.2408,-2.2454,-2.2463,-2.2512,-2.2538,-2.2493,-2.2497,-2.2644,-2.2647,-2.2649,-2.2672,0,0,0,0,0,0,-2.2255,-2.2269,-2.2291,-2.2323,-2.2337,-2.241,-2.2385,-2.2389,-2.241,-2.2408,-2.2441,-2.2445,-2.2453,-2.2506,-2.2516,-2.2543,-2.25,-2.2642,-2.2646,-2.2649,-2.2669,-2.2675,-2.268,0,0,0,0,0,-2.225,-2.2294,-2.2292,-2.2304,-2.2365,-2.2411,-2.2419,-2.2428,-2.2412,-2.2434,-2.245,-2.2444,-2.2534,-2.2512,-2.2523,-2.2551,-2.264,-2.2645,-2.2648,-2.2667,-2.2674,-2.268,0,0,0,0,0,0,-2.2264,-2.2299,-2.2296,-2.2352,-2.2379,-2.241,-2.2438,-2.2435,-2.2467,-2.2464,-2.2473,-2.248,-2.2531,-2.2546,-2.252,-2.2607,-2.2585,-2.2591,-2.2595,-2.2602,-2.2608,-2.2603,-2.2503,0,0,0,0,0,-2.2273,-2.2308,-2.2337,-2.2384,-2.2397,-2.2415,-2.2436,-2.244,-2.2468,-2.2479,-2.2499,-2.2525,-2.256,-2.2582,-2.2615,-2.2672,-2.2678,-2.2696,-2.2702,-2.2706,-2.2711,-2.2742,-2.2751,-2.2663,-2.2663,-2.2663,0,0,-2.2293,-2.2317,-2.2338,-2.2387,-2.2408,-2.2444,-2.2425,-2.2463,-2.249,-2.2485,-2.2533,-2.2548,-2.2579,-2.2632,-2.2657,-2.2647,-2.2737,-2.2711,-2.2715,-2.2718,-2.2747,-2.2755,-2.2763,-2.2666,-2.2666,-2.2665,0,0,-2.2347,-2.2369,-2.241,-2.2432,-2.2464,-2.2476,-2.2486,-2.2518,-2.2528,-2.2577,-2.2574,-2.2605,-2.2664,-2.2686,-2.2705,-2.2768,-2.2763,-2.2778,-2.2807,-2.2837,-2.2844,-2.285,-2.2872,-2.288,-2.2784,-2.2784,-2.2784,0,-2.2368,-2.2422,-2.2432,-2.2471,-2.2492,-2.249,-2.2531,-2.2552,-2.2593,-2.2608,-2.2596,-2.267,-2.269,-2.2749,-2.2764,-2.278,-2.2791,-2.2774,-2.2843,-2.2849,-2.2855,-2.2876,-2.2884,-2.2785,-2.2785,-2.2785,-2.2785,0,-2.2445,-2.2483,-2.2512,-2.2553,-2.2578,-2.2618,-2.2633,-2.2657,-2.2659,-2.2672,-2.2722,-2.2747,-2.2784,-2.2799,-2.2801,-2.2858,-2.285,-2.284,-2.2818,-2.2864,-2.2884,-2.2892,-2.2788,-2.2787,-2.2786,-2.2786,0,0,-2.2509,-2.2555,-2.2565,-2.2584,-2.262,-2.2649,-2.2689,-2.2726,-2.2746,-2.2775,-2.2808,-2.2859,-2.285,-2.2871,-2.2877,-2.2903,-2.2951,-2.289,-2.2891,-2.29,-2.3014,-2.302,-2.303,-2.2949,-2.295,-2.2952,-2.3011,0,-2.2566,-2.2638,-2.2648,-2.271,-2.2745,-2.2744,-2.2778,-2.2804,-2.2817,-2.2848,-2.2863,-2.2898,-2.2884,-2.2897,-2.2924,-2.294,-2.2974,-2.2936,-2.2979,-2.2981,-2.2971,-2.304,-2.3047,-2.3102,-2.3019,-2.302,-2.3021,0,-2.2643,-2.2674,-2.274,-2.2772,-2.2787,-2.2818,-2.2853,-2.2883,-2.2912,-2.292,-2.2944,-2.2946,-2.2987,-2.2964,-2.302,-2.2994,-2.3013,-2.3023,-2.3026,-2.3029,-2.3003,-2.3045,-2.312,-2.3128,-2.3034,-2.3033,-2.3032,0,-2.2682,-2.2741,-2.2788,-2.2804,-2.2842,-2.2863,-2.288,-2.2908,-2.293,-2.296,-2.2975,-2.301,-2.3028,-2.3055,-2.3067,-2.3049,-2.3122,-2.31,-2.3129,-2.3129,-2.3144,-2.3143,-2.3222,-2.3157,-2.3157,-2.3157,-2.3157,0,-2.2744,-2.2785,-2.2806,-2.2835,-2.288,-2.2891,-2.2935,-2.2951,-2.2976,-2.3008,-2.3009,-2.3038,-2.3052,-2.3084,-2.3093,-2.3138,-2.3147,-2.3154,-2.3156,-2.3153,-2.3152,-2.3165,-2.3161,-2.3159,-2.3159,-2.3158,-2.3158,0,-2.2795,-2.2811,-2.2862,-2.2894,-2.2903,-2.2935,-2.2962,-2.299,-2.3003,-2.3044,-2.3054,-2.3074,-2.3112,-2.3126,-2.3172,-2.3178,-2.323,-2.3229,-2.322,-2.322,-2.3248,-2.3245,-2.3338,-2.335,-2.3278,-2.3279,-2.3279,0,-2.2834,-2.2865,-2.29,-2.2922,-2.2939,-2.2974,-2.2997,-2.3009,-2.3032,-2.3068,-2.3091,-2.3129,-2.3159,-2.3219,-2.3238,-2.3273,-2.3272,-2.3302,-2.3277,-2.3274,-2.3272,-2.3269,-2.3272,-2.3306,-2.3307,-2.3308,-2.3308,0,-2.29,-2.2906,-2.2939,-2.2975,-2.3002,-2.303,-2.3058,-2.3075,-2.3092,-2.3118,-2.3156,-2.318,-2.3227,-2.3264,-2.33,-2.3316,-2.3315,-2.3316,-2.3325,-2.3322,-2.3315,-2.3319,-2.3232,-2.3314,-2.3313,-2.3313,-2.3313,-2.3312,-2.2945,-2.2973,-2.3002,-2.3038,-2.3061,-2.3087,-2.3114,-2.3132,-2.3164,-2.3203,-2.3209,-2.325,-2.3278,-2.3326,-2.3345,-2.3377,-2.3368,-2.3381,-2.3384,-2.3386,-2.3388,-2.3311,-2.3383,-2.3383,-2.3383,-2.3383,-2.3383,0,-2.3011,-2.303,-2.3064,-2.3102,-2.3131,-2.3128,-2.3159,-2.3182,-2.3219,-2.3246,-2.3276,-2.332,-2.3356,-2.3378,-2.3414,-2.3435,-2.3436,-2.3444,-2.3442,-2.3446,-2.3394,-2.3382,-2.3444,-2.3444,-2.3443,-2.3443,-2.3443,-2.3443,-2.3049,-2.3095,-2.3105,-2.3162,-2.3181,-2.3222,-2.3239,-2.3263,-2.3284,-2.3334,-2.3364,-2.3378,-2.3403,-2.3441,-2.3474,-2.3479,-2.3492,-2.3501,-2.3506,-2.3456,-2.345,-2.3444,-2.3433,-2.3504,-2.3504,-2.3556,-2.3556,-2.3557]},{"header":{"parameterUnit":"m.s-1","parameterCategory":1,"la1":30.2991,"la2":30.254,"lo1":-89.0895,"lo2":-89.0444,"dy":0.0017,"dx":0.0017,"nx":28,"ny":28,"refTime":"2024-05-20T03:00:00:Z","depth":0,"parameterNumber":3,"parameterNumberName":"V-component_of_WINDS"},"data":[0,0,0,0,0,0,0,0,0,0,0,0,0,0,0,0,0,0,0,0,0,0,0,0,0,0,0,0,0,0,0,0,0,0,0,0,0,0,0,0,0,0,0,0,0,0,0,0,0,0,0,0,0,0,0,0,0,0,1.018,1.018,0,1.0169,1.0169,1.0169,1.0133,1.0133,1.0132,1.0131,1.0121,1.0121,1.0122,0,0,0,0,0,0,0,0,0,0,0,0,0,1.0169,1.017,1.018,1.018,1.0179,1.0169,1.0169,1.0169,1.0134,1.0133,1.0132,1.0131,1.0121,1.0121,1.0122,0,0,0,0,0,0,0,0,0,0,0,0,0,1.0168,1.017,1.018,1.016,1.0159,1.017,1.0169,1.0169,1.0134,1.0133,1.0131,1.013,1.012,1.0121,1.0122,1.015,0,0,1.0124,1.0124,0,0,0,0,0,0,0,0,1.0168,1.0168,1.0163,1.0162,1.016,1.0151,1.0162,1.0163,1.0134,1.0143,1.0131,1.013,1.0132,1.0132,1.0132,1.015,1.015,1.0124,1.0124,1.0125,1.0125,0,0,0,0,0,0,0,1.0168,1.0169,1.0176,1.0163,1.0161,1.0153,1.0151,1.0162,1.0145,1.0142,1.014,1.0139,1.0131,1.0132,1.0132,1.0149,1.0124,1.0125,1.0125,1.0125,1.0191,1.0192,0,0,0,0,0,0,1.0171,1.0169,1.0176,1.0175,1.0161,1.0154,1.0152,1.0155,1.0144,1.0141,1.014,1.0137,1.0131,1.0131,1.0131,1.0165,1.0125,1.0125,1.0126,1.019,1.0191,1.0193,0,0,0,0,0,0,1.0171,1.0172,1.0176,1.0171,1.0171,1.0155,1.0159,1.0156,1.0157,1.0143,1.0139,1.0144,1.013,1.013,1.0146,1.0164,1.0126,1.0126,1.0188,1.019,1.0192,1.0232,0,0,0,0,0,0,1.0171,1.0172,1.0183,1.0172,1.0172,1.0191,1.016,1.0157,1.0158,1.0155,1.0146,1.0143,1.0129,1.0145,1.0147,1.0164,1.0127,1.0186,1.0189,1.0191,1.0229,1.0235,1.024,0,0,0,0,0,1.017,1.0194,1.0183,1.0184,1.0184,1.0192,1.0192,1.0176,1.016,1.017,1.0161,1.0143,1.0162,1.0147,1.0149,1.0166,1.0185,1.0188,1.0191,1.0226,1.0233,1.024,0,0,0,0,0,0,1.0207,1.0192,1.018,1.0201,1.0198,1.0186,1.0199,1.0184,1.0186,1.0182,1.0162,1.016,1.0179,1.0174,1.0159,1.0194,1.0171,1.0174,1.0197,1.0203,1.0209,1.021,1.0128,0,0,0,0,0,1.0217,1.0225,1.0211,1.0231,1.023,1.0215,1.0218,1.0206,1.0202,1.0201,1.0193,1.019,1.0195,1.0199,1.0203,1.0228,1.0226,1.0241,1.0246,1.0251,1.0254,1.0268,1.0275,1.0202,1.0202,1.0202,0,0,1.0239,1.0232,1.0238,1.0238,1.0235,1.0243,1.0214,1.0224,1.0231,1.0202,1.0217,1.0211,1.0207,1.0227,1.0236,1.0224,1.0274,1.0255,1.0259,1.0259,1.0272,1.0278,1.0285,1.0204,1.0204,1.0204,0,0,1.0282,1.0278,1.0294,1.0291,1.0286,1.0276,1.028,1.0271,1.0266,1.028,1.026,1.0267,1.0276,1.0274,1.0274,1.0319,1.0302,1.0321,1.035,1.0363,1.0369,1.0374,1.039,1.0396,1.0324,1.0324,1.0324,0,1.031,1.0322,1.0304,1.0316,1.0317,1.0292,1.0308,1.0307,1.0303,1.0305,1.0291,1.0303,1.0298,1.0319,1.033,1.0331,1.0335,1.0321,1.0369,1.0374,1.0379,1.0394,1.04,1.0326,1.0326,1.0326,1.0325,0,1.0356,1.0365,1.0378,1.0376,1.0379,1.0393,1.0378,1.0383,1.0371,1.0362,1.0378,1.0371,1.0374,1.0378,1.0366,1.0397,1.0389,1.0373,1.0349,1.0388,1.0402,1.0408,1.0329,1.0329,1.0328,1.0327,0,0,1.0421,1.041,1.0415,1.0415,1.0408,1.0414,1.0428,1.0431,1.0435,1.0434,1.0445,1.0454,1.0439,1.044,1.0427,1.0439,1.0476,1.0421,1.0421,1.0432,1.051,1.0523,1.053,1.0465,1.0466,1.0467,1.051,0,1.0463,1.0485,1.047,1.0495,1.0503,1.048,1.0492,1.0489,1.0482,1.0488,1.048,1.0487,1.0466,1.0466,1.0477,1.0469,1.0491,1.0466,1.0475,1.0476,1.0477,1.0537,1.055,1.0591,1.0516,1.0517,1.0517,0,1.0515,1.0516,1.0542,1.0535,1.0537,1.0548,1.055,1.0556,1.0553,1.0547,1.0548,1.0533,1.0546,1.0523,1.054,1.0524,1.0527,1.0523,1.0525,1.0525,1.0499,1.0539,1.0604,1.0611,1.0526,1.0525,1.0525,0,1.0561,1.0569,1.0586,1.0586,1.0577,1.0586,1.0583,1.0578,1.0581,1.0583,1.0585,1.0588,1.059,1.0593,1.0579,1.0564,1.06,1.0575,1.0595,1.0596,1.0604,1.0603,1.067,1.0606,1.0605,1.0605,1.0605,0,1.0609,1.0626,1.0607,1.0617,1.0635,1.0618,1.0636,1.0631,1.0628,1.0637,1.0617,1.0626,1.0607,1.0615,1.0604,1.0621,1.0622,1.0618,1.0615,1.062,1.062,1.0621,1.0618,1.0607,1.0607,1.0606,1.0606,0,1.0663,1.0651,1.0668,1.0659,1.0657,1.0671,1.0663,1.0673,1.0664,1.0676,1.0678,1.0665,1.0673,1.0659,1.0665,1.0658,1.0682,1.0674,1.0683,1.0681,1.0702,1.0701,1.0773,1.0782,1.0711,1.0712,1.0712,0,1.0695,1.0707,1.07,1.0705,1.0703,1.0711,1.0714,1.0698,1.0702,1.07,1.071,1.0716,1.072,1.0733,1.0724,1.0729,1.0722,1.0747,1.0722,1.0727,1.0723,1.0722,1.0724,1.0752,1.0752,1.0753,1.0754,0,1.0753,1.0747,1.0752,1.0755,1.076,1.0762,1.0762,1.0767,1.075,1.0756,1.0764,1.0767,1.0773,1.078,1.0782,1.0779,1.0764,1.0762,1.0767,1.0772,1.0776,1.0775,1.0697,1.076,1.0759,1.0759,1.0759,1.0758,1.0797,1.0807,1.0804,1.0811,1.081,1.0811,1.0819,1.0813,1.0819,1.0823,1.0813,1.0823,1.0821,1.0823,1.0822,1.083,1.0819,1.0826,1.0828,1.083,1.0833,1.0775,1.083,1.083,1.083,1.0829,1.0829,0,1.0854,1.0851,1.0858,1.0859,1.0865,1.085,1.085,1.0856,1.0865,1.0864,1.0869,1.0878,1.0885,1.0877,1.0882,1.089,1.0883,1.0892,1.0891,1.0891,1.0843,1.0838,1.0897,1.0897,1.0897,1.0897,1.0897,1.0897,1.0885,1.0902,1.0895,1.0911,1.0908,1.0918,1.092,1.0921,1.092,1.0931,1.0937,1.0932,1.0928,1.0933,1.0938,1.0936,1.0939,1.095,1.0945,1.0901,1.0894,1.0888,1.0883,1.0951,1.0951,1.0993,1.0993,1.0993]}]]